This is the latest recevied weather packets stored in our database for station/object KB3UMW-13. If no packets are shown the sender has not sent any weather packets the latest 10 day(s).
| Time | Temp. | Humidity | Pressure | Rain* | Wind** | Luminosity | Snow |
|---|---|---|---|---|---|---|---|
| 1777824015 | 8.33° C | 55% | 1016.9 hPa | 0 mm | - | 890 W/m² | - |
| 1777823711 | 8.89° C | 53% | 1017.1 hPa | 0 mm | - | 863 W/m² | - |
| 1777823408 | 9.44° C | 52% | 1016.6 hPa | 0 mm | - | 194 W/m² | - |
| 1777823106 | 9.44° C | 57% | 1016.8 hPa | 0 mm | - | 852 W/m² | - |
| 1777822803 | 8.33° C | 53% | 1017.1 hPa | 0 mm | - | 830 W/m² | - |
| 1777822501 | 7.22° C | 55% | 1017.1 hPa | 0 mm | - | 876 W/m² | - |
| 1777822198 | 8.89° C | 52% | 1017.1 hPa | 0 mm | - | 746 W/m² | - |
| 1777821896 | 8.89° C | 56% | 1017.1 hPa | 0 mm | - | 183 W/m² | - |
| 1777821593 | 8.89° C | 56% | 1017 hPa | 0 mm | - | 859 W/m² | - |
| 1777821291 | 8.33° C | 54% | 1017 hPa | 0 mm | - | 790 W/m² | - |
| 1777820988 | 7.78° C | 63% | 1016.9 hPa | 0 mm | - | 846 W/m² | - |
| 1777820679 | 8.89° C | 53% | 1016.8 hPa | 0 mm | - | 925 W/m² | - |
| 1777820375 | 8.33° C | 58% | 1016.9 hPa | 0 mm | - | 240 W/m² | - |
| 1777820073 | 7.78° C | 58% | 1017 hPa | 0 mm | - | 803 W/m² | - |
| 1777819770 | 7.22° C | 62% | 1017.1 hPa | 0 mm | - | 266 W/m² | - |
| 1777819467 | 6.11° C | 63% | 1017.1 hPa | 0 mm | - | 786 W/m² | - |
| 1777819165 | 6.67° C | 62% | 1017 hPa | 0 mm | - | 903 W/m² | - |
| 1777818861 | 7.22° C | 61% | 1017.2 hPa | 0 mm | - | 833 W/m² | - |
| 1777818552 | 7.22° C | 66% | 1017 hPa | 0 mm | - | 802 W/m² | - |
| 1777818250 | 5.56° C | 62% | 1017.1 hPa | 0 mm | - | 749 W/m² | - |
| 1777817946 | 7.22° C | 64% | 1016.9 hPa | 0 mm | - | 748 W/m² | - |
| 1777817643 | 6.67° C | 67% | 1016.9 hPa | 0 mm | - | 670 W/m² | - |
| 1777817340 | 5° C | 68% | 1016.9 hPa | 0 mm | - | 239 W/m² | - |
| 1777817037 | 6.67° C | 62% | 1016.9 hPa | 0 mm | - | 223 W/m² | - |
| 1777816732 | 6.67° C | 65% | 1016.9 hPa | 0 mm | - | 263 W/m² | - |
* Rain latest hour (hover to see other rain measurements)
** Current wind speed in m/s (hover to see current wind gust speed)